�N����,����,�~����,�C��,���x,�C��,����,���ϕ���,�ő�u�ԕ���,�ő厞����,���˗�,�I�_���x,�n�����x,�ő啗���N��,DTYPE
"21/01/08","00:10",0.0,-2.8,61.8,1007.6,303.0,4.5,6.6,321.9,0.00,-9.1,2.9,"00:03:20",1
"21/01/08","00:20",0.0,-2.8,62.3,1007.8,300.6,4.4,8.5,296.1,0.00,-9.0,3.1,"00:12:48",1
"21/01/08","00:30",0.0,-2.9,63.0,1007.6,295.0,3.7,5.7,265.2,0.00,-8.9,3.1,"00:23:28",1
"21/01/08","00:40",0.0,-2.9,63.7,1007.6,290.4,3.6,5.4,329.8,0.00,-8.8,3.1,"00:37:12",1
"21/01/08","00:50",0.0,-2.9,64.2,1007.6,290.8,3.6,7.3,342.1,0.00,-8.7,2.8,"00:45:12",1
"21/01/08","01:00",0.0,-3.0,64.7,1007.6,282.8,3.6,5.2,312.3,0.00,-8.7,3.0,"00:51:44",1
"21/01/08","01:10",0.0,-3.1,65.2,1007.8,285.4,3.9,8.3,311.6,0.00,-8.7,2.9,"01:04:00",1
"21/01/08","01:20",0.0,-3.1,65.8,1007.6,291.8,3.6,6.3,309.0,0.00,-8.5,2.8,"01:14:32",1
"21/01/08","01:30",0.0,-3.2,66.5,1007.4,297.2,3.6,5.9,302.9,0.00,-8.5,2.9,"01:26:10",1
"21/01/08","01:40",0.0,-3.3,67.1,1007.1,297.3,3.7,6.0,340.0,0.00,-8.5,2.8,"01:39:44",1
"21/01/08","01:50",0.0,-3.2,67.3,1007.4,297.4,3.9,6.0,330.4,0.00,-8.4,2.8,"01:41:20",1
"21/01/08","02:00",0.0,-3.3,67.8,1007.6,301.9,4.0,5.6,339.0,0.00,-8.4,2.9,"01:54:32",1
"21/01/08","02:10",0.0,-3.3,68.0,1007.8,291.3,3.6,5.7,344.1,0.00,-8.3,2.9,"02:05:52",1
"21/01/08","02:20",0.0,-3.3,68.5,1007.1,288.0,3.5,5.1,311.6,0.00,-8.2,2.7,"02:12:08",1
"21/01/08","02:30",0.0,-3.4,68.9,1007.1,288.0,3.5,5.7,307.5,0.00,-8.2,2.8,"02:24:28",1
"21/01/08","02:40",0.0,-3.4,69.2,1007.8,281.9,3.2,5.6,293.0,0.00,-8.2,2.8,"02:36:08",1
"21/01/08","02:50",0.0,-3.4,69.4,1007.4,285.1,3.4,5.4,332.7,0.00,-8.1,2.6,"02:49:52",1
"21/01/08","03:00",0.0,-3.4,69.6,1006.9,287.9,3.9,7.0,311.2,0.00,-8.1,2.7,"02:56:12",1
"21/01/08","03:10",0.0,-3.5,69.9,1007.1,296.0,3.6,5.4,328.2,0.00,-8.2,2.7,"03:04:38",1
"21/01/08","03:20",0.0,-3.5,70.2,1007.4,288.0,3.5,5.8,261.5,0.00,-8.1,2.7,"03:17:20",1
"21/01/08","03:30",0.0,-3.5,70.3,1006.9,289.7,4.0,6.8,306.1,0.00,-8.1,2.5,"03:23:00",1
"21/01/08","03:40",0.0,-3.5,70.4,1007.4,293.1,4.1,5.6,291.1,0.00,-8.1,2.6,"03:39:36",1
"21/01/08","03:50",0.0,-3.5,70.6,1006.9,294.3,4.2,6.3,305.5,0.00,-8.0,2.7,"03:44:48",1
"21/01/08","04:00",0.0,-3.5,70.7,1007.1,299.3,4.4,6.4,331.7,0.00,-8.0,2.3,"03:59:06",1
"21/01/08","04:10",0.0,-3.5,70.6,1007.4,303.1,4.5,7.0,307.0,0.00,-8.0,2.5,"04:03:54",1
"21/01/08","04:20",0.0,-3.5,70.5,1007.1,300.5,4.2,5.9,333.4,0.00,-8.0,2.2,"04:16:00",1
"21/01/08","04:30",0.0,-3.5,70.4,1007.4,301.4,4.2,6.8,314.2,0.00,-8.1,2.6,"04:27:02",1
"21/01/08","04:40",0.0,-3.4,70.3,1007.1,292.6,4.0,5.7,310.6,0.00,-8.0,2.5,"04:32:00",1
"21/01/08","04:50",0.0,-3.4,70.2,1007.6,289.2,3.6,5.5,299.6,0.00,-8.0,2.1,"04:48:18",1
"21/01/08","05:00",0.0,-3.4,70.4,1007.8,291.7,3.9,5.6,321.8,0.00,-8.0,2.4,"04:52:02",1
"21/01/08","05:10",0.0,-3.4,70.6,1007.6,287.9,3.6,4.9,301.8,0.00,-7.9,2.4,"05:08:26",1
"21/01/08","05:20",0.0,-3.4,70.8,1007.4,281.2,3.7,7.1,257.2,0.00,-7.9,2.5,"05:14:40",1
"21/01/08","05:30",0.0,-3.3,71.0,1007.6,279.6,3.7,6.2,262.8,0.00,-7.8,2.5,"05:29:40",1
"21/01/08","05:40",0.0,-3.4,71.0,1007.4,286.0,3.6,5.9,296.3,0.00,-7.9,2.4,"05:30:18",1
"21/01/08","05:50",0.0,-3.4,71.1,1007.1,289.7,3.5,6.0,317.5,0.00,-7.8,2.3,"05:45:26",1
"21/01/08","06:00",0.0,-3.5,71.4,1007.6,291.8,4.0,5.4,302.5,0.00,-7.9,2.2,"05:50:16",1
"21/01/08","06:10",0.0,-3.6,71.7,1007.6,293.2,3.6,5.7,312.9,0.00,-7.9,2.3,"06:06:20",1
"21/01/08","06:20",0.0,-3.6,71.9,1007.4,295.9,4.2,6.3,298.6,0.00,-7.9,2.2,"06:17:06",1
"21/01/08","06:30",0.0,-3.6,72.1,1007.8,294.7,4.0,6.2,330.7,0.00,-7.9,2.2,"06:24:06",1
"21/01/08","06:40",0.0,-3.5,72.3,1008.1,299.3,4.2,6.3,323.4,0.00,-7.7,2.3,"06:38:24",1
"21/01/08","06:50",0.0,-3.5,72.0,1008.1,303.6,5.1,7.5,309.1,0.00,-7.8,2.1,"06:46:26",1
"21/01/08","07:00",0.0,-3.5,72.0,1007.8,304.9,5.0,8.2,330.8,0.00,-7.8,2.3,"06:52:42",1
"21/01/08","07:10",0.0,-3.6,72.0,1008.3,308.0,4.2,7.2,337.8,0.00,-7.9,2.1,"07:05:48",1
"21/01/08","07:20",0.0,-3.6,72.0,1008.1,301.7,4.1,6.4,332.6,0.00,-7.9,2.3,"07:14:30",1
"21/01/08","07:30",0.0,-3.5,72.0,1008.3,304.3,4.0,6.5,331.3,0.00,-7.8,1.9,"07:24:32",1
"21/01/08","07:40",0.0,-3.6,72.1,1008.1,305.8,3.5,5.6,321.7,0.00,-7.9,2.2,"07:31:38",1
"21/01/08","07:50",0.0,-3.6,72.6,1008.8,302.9,3.4,5.2,315.3,0.00,-7.8,2.2,"07:48:10",1
"21/01/08","08:00",0.0,-3.2,72.6,1008.6,304.9,3.7,7.2,329.0,0.00,-7.4,2.1,"07:55:20",1
"21/01/08","08:10",0.0,-3.1,72.2,1008.6,303.7,4.0,7.1,329.9,0.01,-7.4,2.1,"08:01:24",1
"21/01/08","08:20",0.0,-3.0,72.0,1009.0,303.2,3.7,6.7,308.4,0.01,-7.3,2.2,"08:19:42",1
"21/01/08","08:30",0.0,-2.7,71.4,1009.0,303.8,4.5,6.4,332.7,0.04,-7.1,2.3,"08:26:04",1
"21/01/08","08:40",0.0,-2.5,70.3,1009.7,282.2,3.9,6.0,264.0,0.06,-7.1,2.3,"08:33:54",1
"21/01/08","08:50",0.0,-2.2,68.8,1009.7,283.2,4.4,7.5,318.9,0.08,-7.1,2.1,"08:49:00",1
"21/01/08","09:00",0.0,-1.9,66.9,1009.5,284.3,4.6,7.0,326.9,0.10,-7.2,2.2,"08:56:38",1
"21/01/08","09:10",0.0,-1.7,64.9,1010.0,285.6,4.7,7.9,305.4,0.13,-7.4,2.2,"09:06:12",1
"21/01/08","09:20",0.0,-1.3,63.3,1009.7,289.1,4.2,7.2,333.4,0.15,-7.3,2.3,"09:13:52",1
"21/01/08","09:30",0.0,-1.3,61.4,1010.0,309.7,5.5,8.8,307.0,0.18,-7.7,2.3,"09:28:44",1
"21/01/08","09:40",0.0,-0.9,60.8,1010.0,297.6,5.0,8.6,310.1,0.21,-7.5,2.4,"09:30:26",1
"21/01/08","09:50",0.0,-0.7,58.9,1009.7,288.9,4.5,6.6,312.8,0.23,-7.7,2.3,"09:42:08",1
"21/01/08","10:00",0.0,-0.4,56.8,1009.7,289.1,4.0,9.3,327.9,0.26,-7.9,2.5,"09:50:08",1
"21/01/08","10:10",0.0,-0.3,55.6,1010.2,301.0,5.2,8.5,309.4,0.28,-8.1,2.6,"10:03:42",1
"21/01/08","10:20",0.0,0.1,54.1,1010.2,292.2,4.1,6.5,308.0,0.30,-8.0,2.8,"10:17:16",1
"21/01/08","10:30",0.0,0.1,52.3,1009.7,277.7,4.6,8.1,321.3,0.32,-8.5,2.9,"10:25:02",1
"21/01/08","10:40",0.0,0.3,51.8,1009.7,279.9,4.1,7.3,298.5,0.34,-8.4,3.1,"10:32:32",1
"21/01/08","10:50",0.0,0.6,50.7,1009.5,286.1,4.5,8.3,320.1,0.35,-8.4,3.1,"10:41:10",1
"21/01/08","11:00",0.0,0.7,48.6,1009.3,283.3,4.2,7.5,290.9,0.37,-8.9,3.2,"10:58:34",1
"21/01/08","11:10",0.0,1.2,48.4,1009.0,287.2,4.2,9.3,337.7,0.38,-8.4,3.6,"11:01:16",1
"21/01/08","11:20",0.0,1.2,47.4,1008.8,295.5,4.7,9.1,336.1,0.39,-8.7,3.4,"11:18:20",1
"21/01/08","11:30",0.0,1.3,45.8,1009.0,280.9,4.4,9.3,320.5,0.40,-9.1,3.8,"11:23:06",1
"21/01/08","11:40",0.0,1.5,45.3,1008.6,282.8,4.2,7.2,334.3,0.41,-9.0,4.0,"11:37:52",1
"21/01/08","11:50",0.0,1.5,45.5,1008.3,259.2,4.1,7.1,289.3,0.42,-9.0,4.1,"11:46:34",1
"21/01/08","12:00",0.0,1.8,44.9,1008.3,268.2,4.0,6.7,303.7,0.43,-8.9,4.3,"11:54:52",1
"21/01/08","12:10",0.0,1.7,44.8,1008.1,277.0,4.5,7.7,310.7,0.43,-9.0,4.4,"12:01:36",1
"21/01/08","12:20",0.0,2.0,44.8,1008.1,267.8,4.7,8.0,233.4,0.44,-8.7,4.5,"12:14:30",1
"21/01/08","12:30",0.0,2.3,44.9,1008.1,249.4,4.2,7.2,251.5,0.44,-8.4,4.8,"12:21:56",1
"21/01/08","12:40",0.0,2.5,42.8,1008.1,265.6,4.2,7.4,240.7,0.44,-8.8,4.9,"12:38:42",1
"21/01/08","12:50",0.0,2.5,42.7,1007.8,266.5,5.0,8.6,235.9,0.44,-8.9,5.1,"12:45:04",1
"21/01/08","13:00",0.0,2.8,42.7,1007.8,259.2,4.0,7.7,236.4,0.44,-8.6,5.2,"12:51:00",1
"21/01/08","13:10",0.0,2.4,41.7,1007.6,260.4,4.4,7.7,310.8,0.43,-9.3,5.4,"13:02:00",1
"21/01/08","13:20",0.0,2.5,42.0,1007.4,265.1,3.6,7.5,315.1,0.40,-9.1,5.5,"13:13:54",1
"21/01/08","13:30",0.0,2.6,42.1,1007.6,274.3,4.4,7.3,317.3,0.38,-8.9,5.5,"13:26:58",1
"21/01/08","13:40",0.0,2.3,41.6,1007.4,253.1,3.9,7.0,234.2,0.29,-9.4,5.6,"13:30:28",1
"21/01/08","13:50",0.0,2.6,43.0,1007.1,254.2,3.9,6.5,230.1,0.33,-8.7,5.5,"13:44:50",1
"21/01/08","14:00",0.0,3.3,41.8,1007.4,279.4,3.6,7.3,305.5,0.34,-8.4,5.9,"13:51:22",1
"21/01/08","14:10",0.0,2.6,41.9,1007.4,249.9,3.7,7.9,225.8,0.21,-9.0,5.8,"14:00:50",1
"21/01/08","14:20",0.0,2.6,41.5,1007.1,258.3,3.4,5.6,240.9,0.20,-9.1,5.8,"14:14:44",1
"21/01/08","14:30",0.0,2.6,41.3,1007.6,278.0,3.5,7.3,299.0,0.27,-9.2,5.7,"14:23:20",1
"21/01/08","14:40",0.0,3.2,41.2,1007.4,256.5,3.5,6.5,276.7,0.29,-8.7,6.0,"14:30:08",1
"21/01/08","14:50",0.0,3.2,40.0,1007.8,261.8,3.6,6.0,252.2,0.28,-9.1,6.1,"14:46:14",1
"21/01/08","15:00",0.0,3.3,40.9,1007.8,256.1,3.1,6.5,232.0,0.24,-8.7,6.0,"14:52:30",1
"21/01/08","15:10",0.0,2.7,40.9,1007.6,261.1,2.7,5.7,281.3,0.13,-9.2,5.8,"15:02:48",1
"21/01/08","15:20",0.0,2.0,42.5,1007.8,258.8,3.2,6.4,275.6,0.10,-9.4,5.8,"15:17:52",1
"21/01/08","15:30",0.0,2.3,43.8,1007.6,242.3,3.1,7.1,255.0,0.18,-8.7,5.8,"15:29:26",1
"21/01/08","15:40",0.0,2.2,44.3,1007.6,251.8,4.0,6.8,234.4,0.18,-8.7,5.8,"15:30:14",1
"21/01/08","15:50",0.0,2.5,44.6,1007.6,246.2,3.5,6.4,230.6,0.17,-8.3,5.7,"15:45:22",1
"21/01/08","16:00",0.0,1.8,44.5,1007.4,272.5,4.2,6.5,287.9,0.11,-9.0,5.6,"15:55:54",1
"21/01/08","16:10",0.0,1.7,46.1,1007.6,284.6,3.5,5.7,280.9,0.06,-8.6,5.7,"16:03:04",1
"21/01/08","16:20",0.0,1.4,46.6,1007.6,277.4,2.7,4.7,257.0,0.03,-8.7,5.6,"16:15:34",1
"21/01/08","16:30",0.0,1.0,47.3,1007.6,268.3,2.6,4.7,297.7,0.01,-8.9,5.4,"16:22:16",1
"21/01/08","16:40",0.0,0.8,47.4,1007.4,254.6,2.8,5.2,245.0,0.00,-9.1,5.4,"16:30:16",1
"21/01/08","16:50",0.0,0.7,47.7,1007.6,253.9,3.4,5.6,236.9,0.00,-9.1,5.1,"16:47:28",1
"21/01/08","17:00",0.0,0.7,48.0,1007.4,251.3,3.6,6.0,208.9,0.00,-9.0,5.2,"16:55:12",1
"21/01/08","17:10",0.0,0.5,48.1,1007.1,253.0,3.0,5.2,231.7,0.00,-9.2,5.0,"17:00:48",1
"21/01/08","17:20",0.0,0.3,48.8,1007.4,258.4,2.6,5.4,228.3,0.00,-9.2,4.9,"17:18:48",1
"21/01/08","17:30",0.0,0.2,49.1,1007.6,254.4,2.8,5.2,213.5,0.00,-9.2,4.8,"17:23:04",1
"21/01/08","17:40",0.0,0.2,48.6,1007.4,244.8,3.7,6.7,220.2,0.00,-9.3,4.6,"17:34:28",1
"21/01/08","17:50",0.0,0.1,49.1,1007.8,260.2,3.1,5.7,247.0,0.00,-9.3,4.6,"17:48:58",1
"21/01/08","18:00",0.0,0.0,49.6,1007.8,253.7,2.8,5.4,230.0,0.00,-9.2,4.7,"17:58:00",1
"21/01/08","18:10",0.0,0.0,50.2,1007.8,261.1,3.4,5.9,261.6,0.00,-9.1,4.4,"18:04:18",1
"21/01/08","18:20",0.0,-0.2,50.8,1007.8,263.3,2.8,4.7,244.9,0.00,-9.1,4.3,"18:16:00",1
"21/01/08","18:30",0.0,-0.3,51.5,1007.8,261.3,2.5,5.0,225.1,0.00,-9.0,4.3,"18:24:08",1
"21/01/08","18:40",0.0,-0.4,52.0,1007.6,262.5,2.2,6.8,260.8,0.00,-9.0,4.2,"18:36:32",1
"21/01/08","18:50",0.0,-0.4,51.7,1007.8,262.1,2.3,4.0,269.0,0.00,-9.1,4.1,"18:46:08",1
"21/01/08","19:00",0.0,-0.7,52.0,1007.6,255.5,1.6,2.9,259.4,0.00,-9.3,4.0,"18:57:36",1
"21/01/08","19:10",0.0,-0.6,51.3,1007.8,249.2,2.3,4.5,273.9,0.00,-9.4,3.9,"19:04:40",1
"21/01/08","19:20",0.0,-0.6,50.2,1007.8,266.4,2.5,5.8,306.6,0.00,-9.6,3.9,"19:13:20",1
"21/01/08","19:30",0.0,-0.6,49.6,1007.8,254.7,2.6,4.5,308.0,0.00,-9.8,3.8,"19:20:48",1
"21/01/08","19:40",0.0,-0.7,49.6,1008.1,270.8,2.3,4.7,318.0,0.00,-9.9,3.9,"19:39:04",1
"21/01/08","19:50",0.0,-0.9,49.7,1008.1,271.3,2.1,4.0,255.5,0.00,-10.0,3.7,"19:40:02",1
"21/01/08","20:00",0.0,-0.8,49.0,1008.1,274.0,3.0,5.9,306.0,0.00,-10.1,3.7,"19:59:08",1
"21/01/08","20:10",0.0,-0.8,48.6,1007.8,266.0,2.7,4.8,230.4,0.00,-10.2,3.7,"20:06:22",1
"21/01/08","20:20",0.0,-0.8,48.5,1008.1,273.5,3.0,5.0,289.0,0.00,-10.3,3.5,"20:15:36",1
"21/01/08","20:30",0.0,-0.9,48.3,1008.1,276.5,2.8,5.5,344.5,0.00,-10.4,3.5,"20:27:36",1
"21/01/08","20:40",0.0,-1.1,48.8,1008.1,289.9,2.8,4.4,315.4,0.00,-10.5,3.5,"20:33:28",1
"21/01/08","20:50",0.0,-1.1,49.3,1008.3,285.8,2.6,6.5,317.5,0.00,-10.3,3.4,"20:46:24",1
"21/01/08","21:00",0.0,-1.2,49.9,1007.8,280.3,2.5,6.7,309.2,0.00,-10.3,3.2,"20:58:56",1
"21/01/08","21:10",0.0,-1.3,50.5,1008.1,264.6,2.6,9.4,214.6,0.00,-10.2,3.2,"21:03:28",1
"21/01/08","21:20",0.0,-1.4,51.4,1008.1,272.0,2.7,5.6,304.5,0.00,-10.1,3.2,"21:13:20",1
"21/01/08","21:30",0.0,-1.4,52.1,1007.8,282.2,3.1,6.0,322.3,0.00,-9.9,3.1,"21:25:20",1
"21/01/08","21:40",0.0,-1.5,52.5,1008.1,277.0,3.1,5.6,252.8,0.00,-9.9,3.2,"21:35:28",1
"21/01/08","21:50",0.0,-1.6,53.0,1008.1,289.2,3.0,6.4,323.5,0.00,-9.9,3.0,"21:49:28",1
"21/01/08","22:00",0.0,-1.6,53.2,1008.3,295.7,3.0,6.3,291.5,0.00,-9.8,3.1,"21:54:32",1
"21/01/08","22:10",0.0,-1.7,53.8,1008.1,292.7,3.1,5.9,312.9,0.00,-9.8,2.8,"22:03:52",1
"21/01/08","22:20",0.0,-1.8,54.4,1008.3,296.0,3.0,7.2,332.0,0.00,-9.7,3.0,"22:13:14",1
"21/01/08","22:30",0.0,-1.8,54.7,1007.8,283.1,3.0,4.9,341.5,0.00,-9.7,2.7,"22:21:20",1
"21/01/08","22:40",0.0,-1.9,55.4,1007.6,277.5,2.6,6.3,230.7,0.00,-9.6,2.7,"22:32:16",1
"21/01/08","22:50",0.0,-2.0,56.0,1007.6,278.4,3.1,4.9,278.2,0.00,-9.6,2.8,"22:40:40",1
"21/01/08","23:00",0.0,-2.1,56.7,1007.8,297.9,2.6,6.6,324.7,0.00,-9.5,2.8,"22:54:32",1
"21/01/08","23:10",0.0,-2.2,57.5,1008.1,291.2,2.8,4.8,312.9,0.00,-9.4,2.6,"23:02:24",1
"21/01/08","23:20",0.0,-2.3,58.0,1008.1,291.5,2.6,4.5,316.5,0.00,-9.4,2.9,"23:13:36",1
"21/01/08","23:30",0.0,-2.4,59.0,1007.8,287.4,2.7,4.7,329.9,0.00,-9.3,2.8,"23:26:16",1
"21/01/08","23:40",0.0,-2.4,59.9,1008.1,289.0,3.1,5.5,340.8,0.00,-9.1,2.5,"23:39:52",1
"21/01/08","23:50",0.0,-2.4,60.5,1008.1,275.7,2.6,5.2,264.1,0.00,-9.0,2.7,"23:40:24",1
"21/01/08","24:00",0.0,-2.6,61.0,1008.1,284.5,2.2,3.7,300.9,0.00,-9.0,2.6,"23:57:36",1
